Skip Page Navigation
NASA JPL Caltech
NASA Logo - Jet Propulsion Laboratory + View the NASA Portal
+ Center for Near-Earth Object Studies
JPL Home Earth Solar System Stars & Galaxies Technology
JPL Solar System Dynamics
BODIES ORBITS EPHEMERIDES TOOLS PHYSICAL DATA DISCOVERY FAQ SITE MAP
JPL Small-Body Database Browser
Search: [ help ]  
413596 (2005 UK117)
Classification: Main-belt Asteroid          SPK-ID: 2413596
Ephemeris | Orbit Diagram | Orbital Elements | Mission Design | Physical Parameters | Discovery Circumstances ]

[ show orbit diagram ]
Orbital Elements at Epoch 2459000.5 (2020-May-31.0) TDB
Reference: JPL 14 (heliocentric ecliptic J2000)
 Element Value Uncertainty (1-sigma)   Units 
e .0966979537688173 8.6105e-08  
a 2.711591926608916 3.7968e-08 au
q 2.449386535849789 2.4759e-07 au
i 2.097826765848385 9.5756e-06 deg
node 15.07861266006865 0.00019075 deg
peri 325.4354664329175 0.00019683 deg
M 137.1535415154607 5.5806e-05 deg
tp 2458379.145496178220
(2018-Sep-17.64549618)
0.00024568 TDB
period 1630.928511974482
4.47
3.4255e-05
9.379e-08
d
yr
n .2207331574356784 4.6361e-09 deg/d
Q 2.973797317368043 4.164e-08 au
  Orbit Determination Parameters
   # obs. used (total)      115  
   data-arc span      5648 days (15.46 yr)  
   first obs. used      2003-03-30  
   last obs. used      2018-09-15  
   planetary ephem.      DE431  
   SB-pert. ephem.      SB431-N16  
   condition code      0  
   norm. resid. RMS      .65512  
   source      ORB  
   producer      Otto Matic  
   solution date      2018-Oct-03 13:10:37  

Additional Information
 Earth MOID = 1.44114 au 
 Jupiter MOID = 2.36288 au 
 T_jup = 3.355 
[ show covariance matrix ]

Ephemeris | Orbit Diagram | Orbital Elements | Mission Design | Physical Parameters | Discovery Circumstances ]

Physical Parameter Table
Parameter Symbol Value Units Sigma Reference Notes
absolute magnitude H 17.3   n/a MPO455945  

413596 (2005 UK117)          Discovered 2005-Oct-24 by Spacewatch at Kitt Peak
Reference: Last Updated: 2014-11-10
Ephemeris | Orbit Diagram | Orbital Elements | Mission Design | Physical Parameters | Discovery Circumstances ]
ABOUT SSD CREDITS/AWARDS PRIVACY/COPYRIGHT GLOSSARY LINKS
FirstGov 2020-Aug-07 20:34 UT
(server date/time)  
NASA Home Page
Site Manager:   Ryan S. Park
Webmaster  Alan B. Chamberlin